Back to catalog

METEOR 2-6 DEB

LostPO
NORAD 35426·DEBRIS·🇷🇺 Russia

Launched Sep 9, 1980 from Plesetsk Cosmodrome

Loading…

Next Passes (next 24 hours)

TLE

StaleSource: Space-Track

Epoch: Mar 24, 2023, 02:51 UTC

1 35426U 80073J   23083.11926863  .00016512  00000-0  54026-2 0  9994
2 35426  81.2405  11.1224 0017265 181.8784 178.2341 14.38319423925304

Track METEOR 2-6 DEB in real time with AllMySat

Download on the App Store